Location: Oberkirch
(48.5323°N, 8.0787°E)
Time: 16:46:40
(UTC+00:00)

Cosmos 2333 Rocket - Pass Details

Date: 08 November 2025
Orbit: 837 x 865 km, 70.8° (Epoch: 12 December)

Event Time Altitude Azimuth Distance (km) Brightness Sun altitude
Exits shadow 03:39:29 31° 349° (NNW) 1,475 3.3 -27.5°
Drops below altitude 10° 03:43:00 10° 18° (NNE) 2,506 4.9 -26.9°
Sets 03:45:40 0° 26° (NNE) 3,450 5.8 -26.5°
